マップ彗星

C/2026 A1 ( MAPS )

English version
Home page
Updated on March 11, 2026

---------------------------------------------------------------------

・ プロフィール

発見日 2026年1月13日
発見光度 17.8等
発見者 Alain Maury, Florian Signoret, Georges Attard (MAPS survey)

・ 写真集

・ 軌道要素

                    Epoch = 2026 Mar. 21.0 TT
     T = 2026 Apr.  4.59815 TT        Peri. =  86.35761
     e = 0.9999623                    Node  =   7.89626 2000.0
     q = 0.0057149 AU                 Incl. = 144.49336

・ 星図

・ 光度変化

        m1 = 10.5 + 5 logΔ + 22.0 log r  [   ,-24]  (              〜2026年 3月11日)
        m1 = 10.0 + 5 logΔ + 10.0 log r  [-24,   ]  (2026年 3月11日〜              )

---------------------------------------------------------------------

軌道要素は、CBET 5663に掲載されたものです。
星図はステラナビゲータ Ver.11 (アストロアーツ) で作成したものです。
光度グラフはComet for Windowsで作成したものです。

---------------------------------------------------------------------

Copyright(C) Seiichi Yoshida (comet@aerith.net). All rights reserved.